Content
SEND FEEDBACK

Daily
Averages
Monthly
Summary
Canada

MONTREAL, QUEBEC


Home > North America > Canada > Quebec
Elevation: 118 feet     Latitude: 45 28N     Longitude: 073 45W

WEATHER
 
SELECT A DAY
Number of Records: 203,331;   Date Range: 1/1/95 - 12/17/14
 
SHARE

PRINT THIS DATA

[ ← Previous Day ]
WEATHER ALMANAC - APRIL 25, 2013
[ Next Day → ]
[ °C ]   °F
Weather ElementAverageHighLow
Temperature44.2 °F55.4 °F (12:12 am)37.4 °F (6:10 am)
Dewpoint29.8 °F48.2 °F (12:12 am)23 °F (2:00 pm)
Humidity58.5 %82 % (1:10 am)25 % (2:00 pm)
Barometer30.03 in30.29 in (10:00 pm)29.60 in (12:12 am)
Wind Speed19.4 mph39.1 mph (12:12 am)
Wind Gust51.8 mph (1:00 am)
Weather ElementAverage
Visibility20.3 mi
Wind DirectionWSW (247.6 °)

Weather ElementTotal
Precipitation---
Heating Degree Days18.6 (Base 65)
Averaged from 33 records on April 25, 2013
WEATHER CONDITIONS BREAKOUT
WIND DIRECTION BREAKOUT
WEATHER BY HOUR - APRIL 25, 2013
[ °C ]   °F
Local TimeTemperatureDewpointHumidityBarometerVisibilityWind DirectionWind SpeedGust SpeedPrecipitationEventsConditions
12:12 AM55.4 °F48.2 °F77 %29.60 in15.0 miSW (230°)39.1 mph44.9 mphRainLight Rain Showers
1:00 AM50.0 °F42.8 °F76 %29.65 in15.0 miSW (230°)35.7 mph51.8 mphOvercast
1:10 AM48.2 °F42.8 °F82 %29.66 in15.0 miSW (230°)36.8 mph50.6 mphRainLight Rain Showers
2:00 AM43.0 °F38.0 °F75 %29.70 in15.0 miWSW (250°)38.0 mphRainLight Rain Showers
2:00 AM42.8 °F37.4 °F81 %29.69 in15.0 miWSW (250°)35.7 mph51.8 mphRainLight Rain Showers
2:28 AM41.0 °F33.8 °F76 %29.74 in15.0 miWSW (240°)34.5 mph46.0 mphMostly Cloudy
3:00 AM39.2 °F32.0 °F75 %29.77 in15.0 miWSW (250°)27.6 mph41.4 mphMostly Cloudy
3:53 AM39.2 °F32.0 °F75 %29.84 in15.0 miWSW (250°)25.3 mph40.3 mphRainLight Rain Showers
4:00 AM39.2 °F32.0 °F75 %29.86 in15.0 miWSW (250°)21.9 mph34.5 mphRainLight Rain Showers
5:00 AM39.2 °F32.0 °F75 %29.92 in15.0 miWSW (240°)21.9 mph29.9 mphRainLight Rain Showers
6:00 AM39.2 °F30.2 °F70 %29.96 in15.0 miWest (260°)21.9 mphOvercast
6:10 AM37.4 °F30.2 °F75 %29.98 in15.0 miWest (260°)18.4 mph26.5 mphRainLight Rain Showers
6:50 AM37.4 °F30.2 °F75 %30.00 in15.0 miWest (260°)21.9 mph31.1 mphOvercast
7:00 AM37.4 °F30.2 °F75 %30.01 in15.0 miWest (260°)19.6 mph35.7 mphOvercast
8:00 AM38.0 °F29.0 °F62 %30.07 in15.0 miWSW (250°)18.4 mphPartly Cloudy
8:00 AM37.4 °F30.2 °F75 %30.07 in15.0 miWest (260°)17.3 mph26.5 mphOvercast
9:00 AM39.2 °F30.2 °F70 %30.12 in15.0 miWest (260°)11.5 mph18.4 mphOvercast
10:00 AM41.0 °F28.4 °F61 %30.14 in15.0 miWSW (250°)23.0 mphMostly Cloudy
11:00 AM44.6 °F28.4 °F53 %30.16 in30.0 miWest (260°)17.3 mph24.2 mphMostly Cloudy
12:00 PM46.4 °F24.8 °F43 %30.17 in30.0 miWest (270°)17.3 mph27.6 mphPartly Cloudy
1:00 PM46.4 °F24.8 °F43 %30.17 in30.0 miWest (270°)18.4 mph28.8 mphPartly Cloudy
2:00 PM49.0 °F24.0 °F25 %30.19 in28.0 miWest (270°)15.0 mph
2:00 PM48.2 °F23.0 °F37 %30.19 in30.0 miWest (260°)16.1 mph21.9 mphClear
3:00 PM50.0 °F24.8 °F37 %30.19 in30.0 miWest (280°)17.3 mph23.0 mphClear
4:00 PM50.0 °F23.0 °F35 %30.19 in30.0 miWest (270°)15.0 mph23.0 mphClear
5:00 PM51.8 °F24.8 °F35 %30.19 in30.0 miWest (270°)12.7 mphClear
6:00 PM51.8 °F23.0 °F33 %30.20 in30.0 miWest (280°)12.7 mphClear
7:00 PM50.0 °F24.8 °F37 %30.22 in30.0 miWSW (250°)6.9 mphClear
8:00 PM47.0 °F25.0 °F29 %30.25 in28.0 miWest (260°)5.8 mphClear
8:00 PM46.4 °F24.8 °F43 %30.25 in30.0 miWest (260°)5.8 mphPartly Cloudy
9:00 PM46.4 °F26.6 °F46 %30.27 in15.0 miSSW (210°)5.8 mphScattered Clouds
10:00 PM46.4 °F26.6 °F46 %30.29 in15.0 miWSW (250°)2.3 mphMostly Cloudy
11:00 PM41.0 °F26.6 °F57 %30.29 in15.0 miNNE (30°)4.6 mphMostly Cloudy
Hourly data recorded from CYUL, located miles away from Montreal, Quebec







STORIES FROM OUR PARTNERS